Regional Weather Roundup
Issued by NWS

Home | Current Version | Previous Version | Graphics & Text | Print | Product List | Glossary On
Versions: 1 2 3 4 5 6 7 8 9 10 11 12 13 14 15 16 17 18 19 20 21 22 23 24 25 26 27
000
ASUS45 KBOU 291607
RWRCO

WEATHER ROUNDUP FOR COLORADO
NATIONAL WEATHER SERVICE DENVER/BOULDER CO
1000 AM MDT FRI JUL 29 2016

NOTE: "FAIR" INDICATES FEW OR NO CLOUDS BELOW 12000 FEET WITH NO
SIGNIFICANT WEATHER AND/OR OBSTRUCTIONS TO VISIBILITY.

COZ001>005-013-030-031-291700-
...NORTHWEST COLORADO...

CITY           SKY/WX    TMP DP  RH WIND       PRES   REMARKS
CRAIG          FAIR      70  39  32 VRB3      30.26F
HAYDEN         FAIR      68  37  32 E5        30.28S
MEEKER         FAIR      71  36  27 CALM      30.26F
MOUNT WERNER   NOT AVBL
STEAMBOAT SPGS FAIR      64  37  37 CALM      30.30F
WALDEN         FAIR      61  45  55 SE3       30.39F
$$

COZ006>008-011-291700-
...WEST CENTRAL VALLEYS...

CITY           SKY/WX    TMP DP  RH WIND       PRES   REMARKS
GRAND JUNCTION FAIR      83  36  18 S10       30.11F
MONTROSE       FAIR      79  39  23 VRB5      30.20S
EAGLE          SUNNY     70  34  26 CALM      30.29F
RIFLE          FAIR      75  37  25 VRB3      30.19F
DELTA          NOT AVBL
NUCLA          NOT AVBL
$$

COZ017>023-064>068-291700-
...SOUTHWEST COLORADO...

CITY           SKY/WX    TMP DP  RH WIND       PRES   REMARKS
DURANGO        FAIR      77  40  26 E8        30.26F
CORTEZ         FAIR      80  42  25 CALM      30.20S
PAGOSA SPRINGS FAIR      74  35  23 S6        30.36S
TELLURIDE      FAIR      71  35  26 CALM      30.48F
WOLF CREEK PAS FAIR      57  37  47 SW7       30.70F
$$

COZ009-010-012-014-032>034-037-058>063-291700-
...CENTRAL COLORADO...

CITY           SKY/WX    TMP DP  RH WIND       PRES   REMARKS
ASPEN          FAIR      72  35  25 CALM      30.34S
BUENA VISTA    FAIR      68  47  46 E3        30.35F
COPPER MTN     FAIR      59  27  29 NW17G25   30.65S
BERTHOUD PASS  FAIR      50  36  57 MISG      30.67S
COTTONWOOD PAS FAIR      68  43  40 CALM      30.48F
GUNNISON       FAIR      64  34  32 CALM      30.38F
KREMMLING      FAIR      64  34  32 CALM      30.35F
LEADVILLE      FAIR      66  21  18 W16G23    30.47F
MONARCH PASS   FAIR      55  32  41 W12G18    30.76R
SALIDA         FAIR      70  54  55 CALM      30.39F
SUNLIGHT       FAIR      64  34  32 MISG      30.61S
WILKERSON PASS FAIR      61  34  36 NW7       30.62S
$$

COZ069>075-291700-
...SAN LUIS VALLEY/SANGRE DE CRISTO MOUNTAINS...

CITY           SKY/WX    TMP DP  RH WIND       PRES   REMARKS
ALAMOSA        FAIR      72  42  34 S9        30.31F
LA VETA PASS   FAIR      64  41  42 SW6       30.51S
SAGUACHE       FAIR      72  41  33 S3        30.35F
$$

COZ035-036-038>040-291700-
...NORTHERN COLORADO FRONT RANGE...

CITY           SKY/WX    TMP DP  RH WIND       PRES   REMARKS
DENVER INTL AP FAIR      73  57  57 VRB5      30.19F
DMNS CITY PARK   N/A     74  57  55 NE5       30.19F
AURORA         MOSUNNY   71  58  63 VRB5      30.21F
FRONT RANGE AP MOSUNNY   73  59  60 E3        30.21F
ERIE MUNI ARPT FAIR      73  59  61 NE3       30.18F
BOULDER MUN AP NOT AVBL
CENTENNIAL     CLOUDY    71  58  63 VRB7      30.22S
BROOMFIELD     PTSUNNY   72  59  64 N5        30.22S
LONGMONT       NOT AVBL
$$

COZ041-046-047-076>085-087-088-291700-
...PIKES PEAK/PALMER DIVIDE AND SOUTHERN FOOTHILLS...

CITY           SKY/WX    TMP DP  RH WIND       PRES   REMARKS
COLO. SPRINGS  PTSUNNY   65  57  75 SW5       30.26F
A. F. ACADEMY  PTSUNNY   67  55  66 SE2       30.26S
SCHRIEVER AFB  NOT AVBL
ELLICOTT       NOT AVBL
FALCON         FAIR      64  55  71 SW3       30.30F
FORT CARSON    CLOUDY    64  59  82 E2        30.23S
LIMON          CLOUDY    67  59  75 SE7       30.21F
MONUMENT HILL  FAIR      68  54  60 CALM      30.31S
TRINIDAD       NOT AVBL
$$

COZ042>045-048>051-090-091-291700-
...NORTHEAST COLORADO...

CITY           SKY/WX    TMP DP  RH WIND       PRES   REMARKS
GREELEY ARPT   FAIR      72  61  68 SE3       30.19S
AKRON          PTSUNNY   70  55  59 SE17      30.19S
BURLINGTON     PTSUNNY   67  60  78 E8        30.18F
WRAY           FAIR      75  57  53 SE7       30.17R
STERLING       NOT AVBL
HOLYOKE        NOT AVBL
FORT MORGAN    NOT AVBL
$$

COZ086-089-092>099-291700-
...SOUTHEAST COLORADO...

CITY           SKY/WX    TMP DP  RH WIND       PRES   REMARKS
PUEBLO         PTSUNNY   71  61  70 SE8       30.16F
LA JUNTA       FAIR      72  62  71 SE7       30.14F
LAMAR          FAIR      70  63  78 E8        30.12S
SPRINGFIELD      N/A     71  61  70 VRB5      30.16F
$$




USA.gov is the U.S. government's official web portal to all federal, state and local government web resources and services.